Погода в Родниково

Россия / Республика Крым     45°02′45″N   33°57′03″E
темп.,
°C
ветер,
м/с
пор.,
м/с
влажн.,
%
обл.,
%
осадки,
мм/ч
давл.,
гПа
погр.,
м
7 мая, пт
пт700:00+9ю227371 0.0 101515
03:00+11зюз236897 0.0 101570
06:00+9ююз11775 0.0 101611
09:00+16с115354 0.0 1016454
12:00+20сз2247100 0.0 10161099
15:00+21з44436 0.0 10151337
18:00+18з44545 0.0 1015453
21:00+13юв226932 0.0 101417
8 мая, сб
сб800:00+12ююв446574 0.0 101354
03:00+12ююв3458100 0.0 101252
06:00+13юв3363100 0.0 101150
09:00+20ююв355395 0.0 1010344
12:00+25з343369 0.0 10102022
15:00+20з665558 0.0 1010631
18:00+15ссз7878100 0.1 1012827
21:00+11с5985100 0.7 1015825
9 мая, вс
вс900:00+9ссз4995100 2.9 1017725
03:00+8с2789100 5.2 1018220
06:00+6ссз399134 0.0 1021396
09:00+9с457368 0.1 10231023
12:00+13ссз674934 0.1 10241914
15:00+14ссз664297 0.1 10242455
18:00+13ссз454691 0.0 10251618
21:00+7зсз22696 0.0 102737
10 мая, пн
пн1000:00+6ю33807 0.0 102839
03:00+6ююв22795 0.0 102710
06:00+6вюв11765 0.0 102710
09:00+11ссв35575 0.0 10271064
12:00+14с464047 0.0 10262258
15:00+15с553827 0.0 10242269
18:00+14с4647100 0.0 10231568
21:00+9сз2267100 0.0 102329
11 мая, вт
вт1100:00+7ююз348223 0.0 102148
03:00+8юз2477100 0.0 1019121
06:00+9юз2376100 0.0 101897
09:00+9зсз2482100 0.1 1018461
12:00+11з2479100 0.1 1016632
15:00+12юз3482100 0.1 1015327
18:00+12ссз389598 2.3 1014397
21:00+8всв34922 2.5 1014107